Weather History for Bentonville, AR

Change the Weather History Date:

Thursday, May 30, 2013

  Actual Average Record
Temperature  
Mean Temperature 70 °F -  
Max Temperature 78 °F 79 °F 90 °F (1953)
Min Temperature 62 °F 57 °F 42 °F (1992)
Cooling Degree Days 5    
Growing Degree Days 20 (Base 50)    
Moisture  
Dew Point 63 °F    
Average Humidity 77    
Maximum Humidity 94    
Minimum Humidity 61    
Precipitation  
Precipitation 0.35 in - - ()
Sea Level Pressure  
Sea Level Pressure 29.79 in    
Wind  
Wind Speed 13 mph (SSE)    
Max Wind Speed 22 mph    
Max Gust Speed 43 mph    
Visibility 10 miles    
Events Thunderstorm    
Averages and records for this station are not official NWS values.
T = Trace of Precipitation, MM = Missing Value Source: NWS Daily Summary

Daily Weather History Graph

Daily Weather History Graph

Search for Another Location

Airport:

Trip Planner

Search our weather history database for the weather conditions in past years. The results will help you decide how hot, cold, wet, or windy it might be!

Date:

Astronomy

May. 30, 2013 Rise Set
Actual Time 6:01 AM CDT 8:28 PM CDT
Civil Twilight 5:31 AM CDT 8:57 PM CDT
Nautical Twilight 4:54 AM CDT 9:34 PM CDT
Astronomical Twilight 4:14 AM CDT 10:15 PM CDT
Moon 12:35 AM CDT (5/30) 12:03 PM CDT (5/30)
Length of Visible Light 15h 26m
Length of Day
14h 26m
Waning Gibbous, 62% of the Moon is Illuminated
May 30
Waning Gibbous
May 31
Last Quarter
Jun 8
New
Jun 16
First Quarter
Jun 23
Full

Hourly Weather History & Observations

Time (CDT) Temp. Dew Point Humidity Pressure Visibility Wind Dir Wind Speed Gust Speed Precip Events Conditions
12:15 AM 73.4 °F 62.6 °F 69% 29.81 in 10.0 mi SSE 13.8 mph 20.7 mph N/A   Clear
12:36 AM 73.4 °F 62.6 °F 69% 29.79 in 10.0 mi South 13.8 mph 21.9 mph N/A   Partly Cloudy
12:55 AM 75.2 °F 62.6 °F 65% 29.80 in 10.0 mi South 13.8 mph 21.9 mph N/A   Clear
1:15 AM 75.2 °F 62.6 °F 65% 29.79 in 10.0 mi South 15.0 mph 25.3 mph N/A   Clear
1:35 AM 73.4 °F 62.6 °F 69% 29.79 in 10.0 mi South 12.7 mph 24.2 mph N/A   Scattered Clouds
1:55 AM 73.4 °F 62.6 °F 69% 29.78 in 10.0 mi South 15.0 mph 24.2 mph N/A   Mostly Cloudy
2:15 AM 73.4 °F 62.6 °F 69% 29.78 in 10.0 mi South 16.1 mph 23.0 mph N/A   Mostly Cloudy
2:35 AM 69.8 °F 62.6 °F 78% 29.84 in 3.0 mi SSW 20.7 mph 42.6 mph 0.16 in Thunderstorm Thunderstorm
2:55 AM 64.4 °F 60.8 °F 88% 29.85 in 10.0 mi WSW 9.2 mph - 0.20 in Thunderstorm Mostly Cloudy
3:15 AM 64.4 °F 60.8 °F 88% 29.82 in 10.0 mi SSW 3.5 mph - 0.03 in   Mostly Cloudy
3:35 AM 64.4 °F 60.8 °F 88% 29.85 in 10.0 mi SSE 10.4 mph - 0.06 in   Overcast
3:55 AM 62.6 °F 59.0 °F 88% 29.84 in 10.0 mi SSE 5.8 mph - 0.08 in   Overcast
4:15 AM 62.6 °F 59.0 °F 88% 29.83 in 10.0 mi SE 6.9 mph - 0.02 in   Mostly Cloudy
4:35 AM 62.6 °F 60.8 °F 94% 29.81 in 7.0 mi ESE 6.9 mph - 0.04 in   Mostly Cloudy
4:55 AM 62.6 °F 60.8 °F 94% 29.80 in 10.0 mi ESE 8.1 mph - 0.05 in   Mostly Cloudy
5:15 AM 62.6 °F 60.8 °F 94% 29.80 in 10.0 mi ESE 8.1 mph - N/A   Mostly Cloudy
5:35 AM 62.6 °F 59.0 °F 88% 29.79 in 10.0 mi ESE 6.9 mph - N/A   Partly Cloudy
5:55 AM 62.6 °F 59.0 °F 88% 29.79 in 10.0 mi ESE 10.4 mph - N/A   Mostly Cloudy
6:15 AM 62.6 °F 59.0 °F 88% 29.79 in 10.0 mi ESE 8.1 mph - N/A   Overcast
6:35 AM 64.4 °F 59.0 °F 83% 29.80 in 10.0 mi SE 5.8 mph - N/A   Overcast
6:55 AM 64.4 °F 59.0 °F 83% 29.82 in 10.0 mi SSE 6.9 mph - N/A   Overcast
7:15 AM 64.4 °F 60.8 °F 88% 29.81 in 10.0 mi SE 12.7 mph - N/A   Mostly Cloudy
7:35 AM 64.4 °F 60.8 °F 88% 29.81 in 10.0 mi SSE 10.4 mph - N/A   Scattered Clouds
7:55 AM 66.2 °F 60.8 °F 83% 29.81 in 10.0 mi SSE 10.4 mph - N/A   Scattered Clouds
8:15 AM 69.8 °F 62.6 °F 78% 29.80 in 10.0 mi SSE 15.0 mph 20.7 mph N/A   Clear
8:35 AM 71.6 °F 64.4 °F 78% 29.80 in 10.0 mi South 16.1 mph 21.9 mph N/A   Clear
8:55 AM 73.4 °F 64.4 °F 73% 29.80 in 10.0 mi South 17.3 mph 26.5 mph N/A   Clear
9:15 AM 73.4 °F 64.4 °F 73% 29.78 in 10.0 mi South 20.7 mph 29.9 mph N/A   Clear
9:35 AM 75.2 °F 64.4 °F 69% 29.79 in 10.0 mi South 18.4 mph 27.6 mph N/A   Partly Cloudy
9:55 AM 75.2 °F 64.4 °F 69% 29.79 in 10.0 mi South 21.9 mph 29.9 mph N/A   Mostly Cloudy
10:15 AM 77.0 °F 64.4 °F 65% 29.79 in 10.0 mi South 15.0 mph 35.7 mph N/A   Mostly Cloudy
10:35 AM 77.0 °F 64.4 °F 65% 29.80 in 10.0 mi South 20.7 mph 31.1 mph N/A   Mostly Cloudy
10:56 AM 78.8 °F 64.4 °F 61% 29.81 in 10.0 mi South 19.6 mph 33.4 mph N/A   Overcast
11:15 AM 77.0 °F 64.4 °F 65% 29.81 in 10.0 mi South 11.5 mph 32.2 mph N/A   Overcast
11:35 AM 77.0 °F 64.4 °F 65% 29.82 in 10.0 mi South 13.8 mph 27.6 mph N/A   Overcast
11:56 AM 77.0 °F 64.4 °F 65% 29.81 in 10.0 mi South 13.8 mph 24.2 mph N/A   Overcast
12:15 PM 77.0 °F 64.4 °F 65% 29.79 in 10.0 mi South 17.3 mph 24.2 mph N/A   Overcast
12:35 PM 78.8 °F 66.2 °F 65% 29.80 in 10.0 mi South 18.4 mph 25.3 mph N/A   Overcast
12:55 PM 78.8 °F 66.2 °F 65% 29.80 in 10.0 mi South 19.6 mph 29.9 mph N/A   Mostly Cloudy
1:15 PM 78.8 °F 66.2 °F 65% 29.78 in 10.0 mi South 18.4 mph 27.6 mph N/A   Mostly Cloudy
1:35 PM 77.0 °F 64.4 °F 65% 29.77 in 10.0 mi South 18.4 mph 29.9 mph N/A   Partly Cloudy
1:55 PM 75.2 °F 62.6 °F 65% 29.78 in 10.0 mi South 17.3 mph 24.2 mph N/A   Clear
2:15 PM 75.2 °F 62.6 °F 65% 29.78 in 10.0 mi SSW 17.3 mph - N/A Thunderstorm Clear
2:35 PM 75.2 °F 60.8 °F 61% 29.78 in 10.0 mi South 17.3 mph 23.0 mph N/A   Clear
2:55 PM 73.4 °F 60.8 °F 65% 29.78 in 10.0 mi South 19.6 mph 28.8 mph N/A Thunderstorm Thunderstorm
3:15 PM 69.8 °F 59.0 °F 68% 29.79 in 10.0 mi South 18.4 mph 35.7 mph N/A Thunderstorm Mostly Cloudy
3:35 PM 69.8 °F 59.0 °F 68% 29.78 in 10.0 mi SSE 13.8 mph 23.0 mph N/A   Overcast
3:55 PM 69.8 °F 60.8 °F 73% 29.77 in 10.0 mi SSE 9.2 mph - N/A   Overcast
4:15 PM 69.8 °F 62.6 °F 78% 29.75 in 10.0 mi SSE 16.1 mph 23.0 mph N/A Thunderstorm Thunderstorm
4:35 PM 71.6 °F 64.4 °F 78% 29.75 in 10.0 mi SSE 17.3 mph 21.9 mph N/A   Mostly Cloudy
4:55 PM 71.6 °F 64.4 °F 78% 29.75 in 10.0 mi SSE 11.5 mph - N/A   Mostly Cloudy
5:15 PM 73.4 °F 66.2 °F 78% 29.74 in 10.0 mi South 12.7 mph 21.9 mph N/A   Mostly Cloudy
5:35 PM 71.6 °F 66.2 °F 83% 29.75 in 10.0 mi South 13.8 mph 20.7 mph N/A   Mostly Cloudy
5:55 PM 71.6 °F 64.4 °F 78% 29.75 in 10.0 mi South 11.5 mph 21.9 mph 0.02 in Thunderstorm Mostly Cloudy
6:15 PM 71.6 °F 66.2 °F 83% 29.74 in 10.0 mi South 17.3 mph 23.0 mph N/A Thunderstorm Thunderstorm
6:35 PM 73.4 °F 66.2 °F 78% 29.74 in 10.0 mi South 12.7 mph 18.4 mph N/A Thunderstorm Overcast
6:55 PM 73.4 °F 66.2 °F 78% 29.75 in 10.0 mi South 12.7 mph 20.7 mph N/A   Overcast
7:15 PM 71.6 °F 64.4 °F 78% 29.76 in 10.0 mi South 13.8 mph 21.9 mph N/A Thunderstorm Overcast
7:36 PM 71.6 °F 64.4 °F 78% 29.75 in 10.0 mi South 10.4 mph 17.3 mph N/A Thunderstorm Mostly Cloudy
7:55 PM 71.6 °F 64.4 °F 78% 29.78 in 10.0 mi South 12.7 mph 21.9 mph N/A   Mostly Cloudy
8:16 PM 71.6 °F 64.4 °F 78% 29.75 in 10.0 mi SSE 12.7 mph 16.1 mph N/A   Overcast
8:35 PM 71.6 °F 64.4 °F 78% 29.76 in 10.0 mi SSE 9.2 mph - N/A   Mostly Cloudy
8:55 PM 71.6 °F 64.4 °F 78% 29.77 in 10.0 mi SSE 10.4 mph 16.1 mph N/A   Overcast
9:15 PM 71.6 °F 64.4 °F 78% 29.79 in 10.0 mi SSE 11.5 mph - N/A   Overcast
9:35 PM 71.6 °F 64.4 °F 78% 29.79 in 10.0 mi SSE 9.2 mph - N/A Thunderstorm Mostly Cloudy
9:55 PM 71.6 °F 64.4 °F 78% 29.79 in 10.0 mi SE 6.9 mph - N/A Thunderstorm Thunderstorm
10:15 PM 69.8 °F 62.6 °F 78% 29.90 in 7.0 mi West 17.3 mph 33.4 mph N/A Thunderstorm Thunderstorm
10:35 PM 62.6 °F 59.0 °F 88% 29.82 in 10.0 mi ENE 5.8 mph - N/A Thunderstorm Thunderstorm
10:55 PM 62.6 °F 60.8 °F 94% 29.81 in 10.0 mi ESE 5.8 mph - N/A Thunderstorm Thunderstorm
11:15 PM 62.6 °F 60.8 °F 94% 29.80 in 10.0 mi ESE 8.1 mph - N/A Thunderstorm Partly Cloudy
11:35 PM 62.6 °F 60.8 °F 94% 29.81 in 10.0 mi SSE 5.8 mph - N/A Thunderstorm Clear
11:55 PM 62.6 °F 60.8 °F 94% 29.81 in 10.0 mi ESE 5.8 mph - N/A   Clear